Regional Weather Roundup
Issued by NWS Albany, NY

Home | Current Version | Previous Version | Text Only | Print | Product List | Glossary On
Versions: 1 2 3 4 5 6 7 8 9 10 11 12 13 14 15 16 17 18 19 20 21 22 23 24 25 26 27 28 29 30 31 32 33 34 35 36 37 38 39 40 41 42 43 44 45 46 47 48 49 50
000
ASUS41 KALY 261210
RWRALY

NEW YORK STATE HOURLY WEATHER ROUNDUP
NATIONAL WEATHER SERVICE ALBANY NY
700 AM EST SUN FEB 26 2017

NOTE: "FAIR" INDICATES FEW OR NO CLOUDS BELOW 12,000 FEET WITH NO
SIGNIFICANT WEATHER AND/OR NO OBSTRUCTIONS TO VISIBILITY.

NYZ032-033-038>043-046>054-057>066-NYZ062>081-082-084-261300-
EAST


CITY           SKY/WX    TMP DP  RH WIND       PRES   REMARKS
ALBANY         MOCLDY    32  20  61 W15       29.84R WCI  22
GLENS FALLS    CLOUDY    33  18  53 VRB6G17   29.80R WCI  28
POUGHKEEPSIE   CLOUDY    34  18  52 W17G26    29.87R WCI  23
NEWBURGH       MOCLDY    34  19  55 NW18G25   29.88R WCI  23
MONTGOMERY     CLOUDY    35  16  45 NW21G32   29.87R WCI  24
WHITE PLAINS   MOCLDY    36  19  50 NW18G25   29.85R WCI  26
ISLIP          MOCLDY    37  19  48 NW14      29.86R WCI  28
NEW YORK CITY  MOCLDY    39  19  44 NW18G24   29.89R WCI  30
CENTRAL PARK   CLOUDY    36  18  48 NW12G24   29.91R WCI  28
$$

NYZ005>009-017-018-044>046-055-056-261300-
CENTRAL


CITY           SKY/WX    TMP DP  RH WIND       PRES   REMARKS
FULTON         CLOUDY    30  16  56 W20G30    29.91R WCI  17
SYRACUSE       CLOUDY    29  17  61 W21G29    29.90R WCI  16
ROME           FLURRIES  28  23  81 W15       29.89R WCI  16
ELMIRA         FLURRIES  28  16  60 NW10      29.95R WCI  19
BINGHAMTON     LGT SNOW  23  19  85 W7        29.86R FOG     WCI  15
MONTICELLO     PTCLDY   N/A N/A N/A NW18G25   29.84R
$$

NYZ026>034-041>043-087-261300-
NORTH


CITY           SKY/WX    TMP DP  RH WIND       PRES   REMARKS
WATERTOWN      PTCLDY    27  17  66 W22G31    29.89R WCI  13
FORT DRUM      NOT AVBL
OGDENSBURG     FAIR      26  17  66 W9        29.84R WCI  17
MASSENA        MOCLDY    27  16  63 W17G26    29.81R WCI  14
SARANAC LAKE   FLURRIES  21  16  81 W10G17    29.69R WCI  10
PLATTSBURGH    CLOUDY    30  18  60 W7        29.75R WCI  23
$$

NYZ001>004-010>016-019>021-085-261300-
WEST


CITY           SKY/WX    TMP DP  RH WIND       PRES   REMARKS
NIAGARA FALLS  MIX PCPN  28  20  71 W14       29.97R WCI  17
BUFFALO        FLURRIES  27  17  66 W16G25    29.97R WCI  15
DUNKIRK        FLURRIES  27  17  66 W13G22    30.01R WCI  16
JAMESTOWN      CLOUDY    21  16  79 W12       29.94R WCI   9
WELLSVILLE     CLOUDY    23  14  68 W16       29.90R WCI  10
ROCHESTER      CLOUDY    27  21  78 W10       29.96R WCI  17
PENN YAN       CLOUDY    28  15  58 W8G17     29.94R WCI  20
$$

             KEY
       WCI = WIND CHILL INDEX
       VSB = VISIBILITY
       HX  = HEAT INDEX
$$



USA.gov is the U.S. government's official web portal to all federal, state and local government web resources and services.